User: anonymous   Login
Location: Unspecified
(0.0000°N, 0.0000°E)
Time: 07:16:29
(UTC+00:00)
Language:

EDUSAT - Orbit

View from above orbital plane
View from above orbital plane
View from above satellite
View from above satellite

Ground track
Ground track

The orbit data is extracted from the following two-line orbital elements,

1 37788U 11044A   17178.84722406 +.00000089 +00000-0 +23020-4 0  9998
2 37788 098.2507 297.9160 0039291 055.0052 102.8830 14.70702250314458
Epoch (UTC): 27 June 2017 20:20:00
Eccentricity: 0.0039291
inclination: 98.2507°
perigee height: 631 km
apogee height: 686 km
right ascension of ascending node: 297.9160°
argument of perigee: 55.0052°
revolutions per day: 14.70702250
mean anomaly at epoch: 102.8830°
orbit number at epoch: 31445

The dashed part of the orbit path shows where the satellite is in the earth's shadow,  

DLR